Date,TemperatureHighF,TemperatureAvgF,TemperatureLowF,DewpointHighF,DewpointAvgF,DewpointLowF,HumidityHigh,HumidityAvg,HumidityLow,PressureMaxIn,PressureMinIn,WindSpeedMaxMPH,WindSpeedAvgMPH,GustSpeedMaxMPH,PrecipitationSumIn
2013-11-1,73.6,64.6,47.1,61.0,54.8,45.0,93,72,43,29.71,29.54,27,8,37,0.11
2013-11-2,64.6,51.0,38.1,51.0,40.8,35.0,97,72,37,29.91,29.65,9,1,15,0.11
2013-11-3,59.6,43.6,28.5,39.0,32.5,27.0,94,70,30,30.43,29.92,9,1,14,0.00
2013-11-4,50.3,36.9,27.1,30.0,26.8,24.0,93,69,44,30.62,30.43,7,1,10,0.00
2013-11-5,53.6,43.1,28.9,45.0,36.1,27.0,92,77,52,30.63,30.45,4,1,6,0.00
2013-11-6,69.3,54.7,44.3,52.0,47.3,42.0,93,77,53,30.45,30.05,11,2,21,0.00
2013-11-7,62.5,49.1,39.4,57.0,42.1,25.0,97,78,49,30.11,29.90,9,1,15,0.05
2013-11-8,52.3,39.0,26.0,32.0,26.5,23.0,90,64,35,30.34,30.11,9,1,16,0.05
2013-11-9,57.5,38.2,22.6,35.0,27.4,21.0,94,70,33,30.36,30.08,15,2,18,0.00
2013-11-10,64.7,44.8,28.8,41.0,29.6,26.0,95,61,24,30.27,29.99,14,2,20,0.00
2013-11-11,62.1,43.0,28.4,35.0,28.4,23.0,91,61,23,30.32,30.02,8,1,14,0.00
2013-11-12,50.4,37.9,25.1,37.0,24.0,16.0,75,58,45,30.45,29.97,13,3,20,0.00
2013-11-13,46.6,31.7,20.0,21.0,18.1,15.0,87,60,29,30.54,30.43,7,1,15,0.00
2013-11-14,60.8,35.3,17.9,28.0,19.9,15.0,93,63,20,30.44,30.26,9,1,11,0.00
2013-11-15,63.6,42.0,22.6,42.0,25.6,16.0,93,62,16,30.32,30.17,11,2,18,0.09
2013-11-16,56.0,48.1,37.4,51.0,45.7,36.0,97,91,82,30.29,30.20,7,2,11,0.14
2013-11-17,63.6,57.2,47.3,59.0,53.8,46.0,96,88,78,30.19,29.71,14,3,21,0.01
2013-11-18,64.8,56.5,45.8,59.0,37.2,25.0,90,52,23,29.95,29.68,26,4,26,0.06
2013-11-19,49.3,40.1,29.3,30.0,27.1,25.0,85,61,43,30.38,29.95,10,1,15,0.00
2013-11-20,51.7,34.5,25.6,29.0,24.6,21.0,93,71,33,30.54,30.38,8,1,10,0.00
2013-11-21,49.1,38.8,26.7,41.0,34.2,24.0,94,84,71,30.57,30.40,6,1,8,0.00
2013-11-22,65.5,55.6,44.2,55.0,49.9,41.0,90,81,68,30.40,30.01,12,3,19,0.00
2013-11-23,56.0,44.6,30.1,49.0,29.3,16.0,82,59,26,30.22,30.02,11,3,20,0.00
2013-11-24,32.0,24.4,14.4,17.0,8.2,5.0,81,52,33,30.58,30.23,8,2,17,0.00
2013-11-25,38.2,25.4,12.3,18.0,11.7,8.0,86,60,32,30.59,30.37,7,1,10,0.00
2013-11-26,42.4,36.4,32.4,41.0,30.1,14.0,96,80,40,30.38,29.67,7,2,14,1.27
2013-11-27,36.8,33.5,25.6,35.0,28.9,14.0,96,84,60,30.13,29.61,13,2,18,0.02
2013-11-28,40.6,27.7,17.3,24.0,18.9,13.0,91,71,43,30.47,30.13,6,1,11,0.02
2013-11-29,46.9,29.4,17.2,28.0,22.4,15.0,94,78,44,30.73,30.47,8,1,10,0.00
2013-11-30,41.6,26.1,15.7,27.0,20.8,14.0,94,82,52,30.73,30.39,5,0,8,0.00